Weather in Kuchenyayevo

Russia / Republic of Mordovia     54°43′46″N   46°22′54″E
temp.,
°C
wind,
m/s
gust,
m/s
humid.,
%
clouds,
%
prec.,
mm/h
press.,
hPa
HPBL,
m
5 august, thu
thu500:00+17wnw226675 0.0 101539
03:00+18nw2458100 0.0 101587
06:00+17nnw3762100 0.0 1016238
09:00+21n46495 0.0 1017646
12:00+24nnw45385 0.0 10172065
15:00+23nw453999 0.0 10171941
18:00+22nnw22497 0.0 101748
21:00+17nne115711 0.0 101711
6 august, fri
fri600:00+15e11640 0.0 101811
03:00+14ese1165100 0.0 101811
06:00+16se126237 0.0 101858
09:00+22sse234338 0.0 1018565
12:00+25s223546 0.0 10181583
15:00+26sse22325 0.0 10161876
18:00+24se34445 0.0 1016102
21:00+19se335173 0.0 101644
7 august, sat
sat700:00+17sse495365 0.0 1016164
03:00+16sse39529 0.0 1016160
06:00+17sse310539 0.0 1016236
09:00+24ssw4738100 0.0 1016513
12:00+28ssw44345 0.0 10161080
15:00+29ssw333210 0.0 10161558
18:00+27ssw124569 0.0 101513
21:00+22sse22525 0.0 101611
8 august, sun
sun800:00+20se2252100 0.0 101611
03:00+18se2254100 0.0 101611
06:00+20sse2251100 0.0 101651
09:00+27sse453498 0.0 1016404
12:00+32s462555 0.0 10151551
15:00+33ssw5624100 0.0 10142016
18:00+29s3338100 0.0 101455
21:00+25ssw2243100 0.0 101513
9 august, mon
mon900:00+23nw2248100 0.0 101521
03:00+22se3550100 0.0 101489
06:00+23s4843100 0.0 1014247
09:00+27wnw44400 0.0 1014568
12:00+30nw22365 0.0 10131197
15:00+31nw3234100 0.0 10121837
18:00+27nnw4846100 0.0 1011261
21:00+22n39493 0.0 1012191